Previsão horária em Plochocin

Hoje, 3 Março, Quarta-feira

Tempo Temperatura Precipitação Vento Pressão Humidade
00:00 +3°C° 0 mm 1 m/s 766 mmHg 93%
01:00 +2°C° 0 mm 1 m/s 766 mmHg 94%
02:00 +2°C° 0 mm 1 m/s 766 mmHg 94%
03:00 +2°C° 0 mm 1 m/s 766 mmHg 94%
04:00 +2°C° 0 mm 1 m/s 765 mmHg 94%
05:00 +2°C° 0 mm 1 m/s 765 mmHg 94%
06:00 +1°C° 0 mm 2 m/s 765 mmHg 94%
07:00 +1°C° 0 mm 2 m/s 764 mmHg 94%
08:00 +2°C° 0 mm 2 m/s 764 mmHg 86%
09:00 +4°C° 0 mm 2 m/s 764 mmHg 78%
10:00 +5°C° 0 mm 2 m/s 763 mmHg 70%
11:00 +7°C° 0 mm 2 m/s 763 mmHg 65%
12:00 +8°C° 0 mm 3 m/s 762 mmHg 60%
13:00 +9°C° 0 mm 3 m/s 762 mmHg 55%
14:00 +9°C° 0 mm 3 m/s 761 mmHg 58%
15:00 +9°C° 0 mm 2 m/s 760 mmHg 60%
16:00 +9°C° 0 mm 2 m/s 760 mmHg 62%
17:00 +8°C° 0 mm 2 m/s 759 mmHg 69%
18:00 +7°C° 0 mm 2 m/s 759 mmHg 76%
19:00 +4°C° 0 mm 3 m/s 758 mmHg 83%
20:00 +4°C° 0 mm 3 m/s 757 mmHg 85%
21:00 +3°C° 0 mm 3 m/s 756 mmHg 86%
22:00 +3°C° 0 mm 3 m/s 756 mmHg 88%
23:00 +3°C° 0 mm 3 m/s 755 mmHg 89%

Amanhã, 4 Março, Quinta-feira

Tempo Temperatura Precipitação Vento Pressão Humidade
00:00 +3°C° 0 mm 3 m/s 755 mmHg 91%
01:00 +2°C° 0 mm 3 m/s 754 mmHg 92%
02:00 +3°C° 0 mm 3 m/s 754 mmHg 92%
03:00 +3°C° 0 mm 3 m/s 753 mmHg 93%
04:00 +3°C° 0 mm 4 m/s 752 mmHg 93%
05:00 +3°C° 0 mm 4 m/s 752 mmHg 92%
06:00 +3°C° 0 mm 4 m/s 752 mmHg 90%
07:00 +3°C° 0 mm 4 m/s 752 mmHg 88%
08:00 +3°C° 0 mm 4 m/s 752 mmHg 85%
09:00 +2°C° 0 mm 5 m/s 752 mmHg 82%
10:00 +2°C° 0 mm 5 m/s 752 mmHg 79%
11:00 +2°C° 0 mm 5 m/s 752 mmHg 79%
12:00 +1°C° 0 mm 5 m/s 752 mmHg 79%
13:00 +1°C° 0 mm 4 m/s 752 mmHg 79%
14:00 +1°C° 0.1 mm 4 m/s 752 mmHg 82%
15:00 0°C° 0.1 mm 5 m/s 752 mmHg 85%
16:00 0°C° 0.1 mm 5 m/s 752 mmHg 88%
17:00 -1°C° 0.1 mm 4 m/s 752 mmHg 87%
18:00 -1°C° 0.1 mm 4 m/s 753 mmHg 86%
19:00 -2°C° 0.1 mm 4 m/s 753 mmHg 86%
20:00 -1°C° 0 mm 3 m/s 753 mmHg 86%
21:00 -2°C° 0 mm 3 m/s 754 mmHg 87%
22:00 -2°C° 0 mm 3 m/s 754 mmHg 87%
23:00 -2°C° 0 mm 3 m/s 754 mmHg 85%

Depois de amanhã, 5 Março, Sexta-feira

Tempo Temperatura Precipitação Vento Pressão Humidade
00:00 -2°C° 0 mm 3 m/s 754 mmHg 83%
01:00 -4°C° 0 mm 3 m/s 755 mmHg 81%
02:00 -4°C° 0 mm 3 m/s 755 mmHg 80%
03:00 -4°C° 0 mm 3 m/s 755 mmHg 78%
04:00 -4°C° 0 mm 3 m/s 755 mmHg 77%
05:00 -2°C° 0 mm 3 m/s 755 mmHg 75%
06:00 -2°C° 0 mm 3 m/s 756 mmHg 72%
07:00 -2°C° 0 mm 3 m/s 756 mmHg 70%
08:00 -1°C° 0 mm 3 m/s 756 mmHg 62%
09:00 -1°C° 0 mm 4 m/s 757 mmHg 54%
10:00 +1°C° 0 mm 4 m/s 757 mmHg 46%
11:00 +1°C° 0.1 mm 4 m/s 757 mmHg 45%
12:00 +1°C° 0.1 mm 4 m/s 758 mmHg 44%
13:00 +3°C° 0.1 mm 4 m/s 758 mmHg 42%
14:00 +1°C° 0.2 mm 4 m/s 758 mmHg 46%
15:00 +2°C° 0.2 mm 3 m/s 758 mmHg 49%
16:00 +1°C° 0.2 mm 3 m/s 758 mmHg 52%
17:00 0°C° 0.1 mm 3 m/s 759 mmHg 58%
18:00 -1°C° 0.1 mm 2 m/s 759 mmHg 63%
19:00 -2°C° 0.1 mm 2 m/s 760 mmHg 69%
20:00 -2°C° 0 mm 2 m/s 761 mmHg 73%
21:00 -3°C° 0 mm 2 m/s 761 mmHg 77%
22:00 -3°C° 0 mm 2 m/s 762 mmHg 81%
23:00 -3°C° 0 mm 2 m/s 762 mmHg 80%

6 Março, Sábado

Tempo Temperatura Precipitação Vento Pressão Humidade
00:00 -3°C° 0 mm 2 m/s 763 mmHg 79%
01:00 -3°C° 0 mm 2 m/s 763 mmHg 78%
02:00 -3°C° 0 mm 2 m/s 763 mmHg 76%
03:00 -3°C° 0 mm 2 m/s 763 mmHg 73%
04:00 -3°C° 0 mm 2 m/s 763 mmHg 70%
05:00 -3°C° 0 mm 2 m/s 763 mmHg 69%
06:00 -3°C° 0 mm 2 m/s 764 mmHg 69%
07:00 -3°C° 0 mm 2 m/s 764 mmHg 68%
08:00 -2°C° 0 mm 3 m/s 764 mmHg 61%
09:00 0°C° 0 mm 3 m/s 764 mmHg 54%
10:00 0°C° 0 mm 4 m/s 765 mmHg 47%
11:00 0°C° 0 mm 4 m/s 764 mmHg 44%
12:00 +1°C° 0 mm 4 m/s 764 mmHg 42%
13:00 +3°C° 0 mm 4 m/s 764 mmHg 40%
14:00 +1°C° 0 mm 4 m/s 763 mmHg 42%
15:00 +1°C° 0 mm 4 m/s 763 mmHg 44%
16:00 +1°C° 0 mm 4 m/s 763 mmHg 46%
17:00 0°C° 0 mm 4 m/s 762 mmHg 49%
18:00 -1°C° 0 mm 4 m/s 762 mmHg 52%
19:00 -2°C° 0 mm 4 m/s 761 mmHg 55%
20:00 -2°C° 0 mm 5 m/s 761 mmHg 57%
21:00 -3°C° 0 mm 6 m/s 761 mmHg 58%
22:00 -3°C° 0 mm 6 m/s 760 mmHg 60%
23:00 -3°C° 0 mm 6 m/s 760 mmHg 63%

7 Março, Domingo

Tempo Temperatura Precipitação Vento Pressão Humidade
00:00 -3°C° 0 mm 6 m/s 759 mmHg 66%
01:00 -3°C° 0 mm 7 m/s 759 mmHg 69%
02:00 -3°C° 0 mm 7 m/s 758 mmHg 73%
03:00 -3°C° 0 mm 7 m/s 758 mmHg 76%
04:00 -3°C° 0 mm 6 m/s 757 mmHg 80%
05:00 -3°C° 0 mm 6 m/s 757 mmHg 82%
06:00 -3°C° 0 mm 6 m/s 757 mmHg 83%
07:00 -3°C° 0 mm 7 m/s 756 mmHg 84%
08:00 -2°C° 0 mm 7 m/s 756 mmHg 82%
09:00 -2°C° 0 mm 7 m/s 756 mmHg 79%
10:00 -1°C° 0 mm 7 m/s 756 mmHg 76%
11:00 -1°C° 0 mm 7 m/s 756 mmHg 75%
12:00 0°C° 0 mm 7 m/s 756 mmHg 73%
13:00 0°C° 0 mm 7 m/s 755 mmHg 72%
14:00 0°C° 0 mm 7 m/s 755 mmHg 73%
15:00 -1°C° 0 mm 6 m/s 755 mmHg 75%
16:00 -1°C° 0 mm 6 m/s 754 mmHg 76%
17:00 -1°C° 0 mm 5 m/s 754 mmHg 79%
18:00 -1°C° 0 mm 5 m/s 754 mmHg 81%
19:00 -2°C° 0 mm 5 m/s 753 mmHg 84%
20:00 -2°C° 0 mm 5 m/s 753 mmHg 85%
21:00 -2°C° 0 mm 5 m/s 753 mmHg 85%
22:00 -1°C° 0 mm 5 m/s 753 mmHg 85%
23:00 -1°C° 0 mm 5 m/s 752 mmHg 85%

8 Março, Segunda-feira

Tempo Temperatura Precipitação Vento Pressão Humidade
00:00 -1°C° 0 mm 5 m/s 752 mmHg 86%
01:00 -1°C° 0 mm 5 m/s 752 mmHg 86%
02:00 -2°C° 0.3 mm 5 m/s 752 mmHg 89%
03:00 -3°C° 0.3 mm 6 m/s 752 mmHg 92%
04:00 -3°C° 0.3 mm 6 m/s 751 mmHg 94%
05:00 -4°C° 0.1 mm 5 m/s 752 mmHg 92%
06:00 -2°C° 0.1 mm 3 m/s 753 mmHg 90%
07:00 -3°C° 0.1 mm 2 m/s 753 mmHg 87%
08:00 -2°C° 0 mm 3 m/s 754 mmHg 77%
09:00 0°C° 0 mm 3 m/s 754 mmHg 67%
10:00 +1°C° 0 mm 3 m/s 755 mmHg 57%
11:00 0°C° 0.1 mm 4 m/s 756 mmHg 62%
12:00 0°C° 0.1 mm 5 m/s 756 mmHg 66%
13:00 0°C° 0.1 mm 5 m/s 756 mmHg 70%
14:00 -1°C° 0 mm 5 m/s 757 mmHg 68%
15:00 -3°C° 0 mm 6 m/s 757 mmHg 66%
16:00 -3°C° 0 mm 6 m/s 757 mmHg 63%
17:00 -4°C° 0 mm 5 m/s 758 mmHg 67%
18:00 -4°C° 0 mm 4 m/s 759 mmHg 70%
19:00 -5°C° 0 mm 4 m/s 759 mmHg 73%
20:00 -5°C° 0 mm 4 m/s 760 mmHg 71%
21:00 -6°C° 0 mm 3 m/s 760 mmHg 69%
22:00 -6°C° 0 mm 3 m/s 761 mmHg 66%
23:00 -6°C° 0 mm 3 m/s 761 mmHg 65%
Mostrar mais

Necessitamos do seu Consentimento

A Meteoprog e os seus Fornecedores de Serviços podem armazenar e aceder a dados pessoais como cookies, identificadores do dispositivo ou outras tecnologias semelhantes existentes no seu dispositivo e processar estes dados para personalizar conteúdos e anúncios, assim como funcionalidades nas redes sociais e análise de tráfego.

  • Armazenar e/ou aceder a informações no seu dispositivo

    Os cookies, identificadores do dispositivo ou outras informações podem ser armazenados ou acedidos no seu dispositivo, para os fins acima indicados.

  • Anúncios e conteúdos personalizados, medição de anúncios e conteúdos, dados sobre o público-alvo e desenvolvimento de produtos

    Os anúncios e os conteúdos podem ser personalizados com base num perfil. Podem ser adicionados dados adicionais para uma maior personalização dos anúncios e dos conteúdos. A eficácia dos anúncios e dos conteúdos pode ser medida. Podem ser obtidas informações sobre o público que visualizou os anúncios e os conteúdos. Estes dados podem ser usados para desenvolver ou melhorar sistemas, softwares ou a experiência do utilizador.

Ao clicar em "Eu concordo”, permitirá o uso de cookies, identificadores do dispositivo e web beacons mencionados ou outras tecnologias semelhantes. As configurações do navegador do seu dispositivo podem ser alteradas.

Para certos fins, podem ser invocados interesses legítimos ao invés de consentimento. Pode ler mais informação sobre este assunto na nossa Política de Privacidade e Cookies.